星链-3683 (STARLINK-3683 )

导读 | 星芒AI

STARLINK-3683 是 SpaceX Starlink 项目中的一颗低轨通信卫星,属于第三代星链卫星群。该卫星于2023年发射,旨在为全球用户提供高速、低延迟的互联网服务。它运行在约550公里高的近地轨道,采用先进推进系统和激光通信技术,以提升网络效率和稳定性。STARLINK-3683 的部署有助于扩展 Starlink 在偏远和农村地区的覆盖范围,支持应急通信和商业应用。

基本信息
目录编号:
53167
目录名称:
STARLINK-3683
国际标识:
2022-083AM
轨道中心:
EARTH
卫星名称:
星链-3683
卫星全名:
星链-3683 (STARLINK-3683 )
卫星状态:
在轨 (已飞行1253 天)
发射日期:
2022-07-17 UTC
国别 :
美国 (US)
星等 :
--
轨道信息
数据来源 国际轨道数据 AOE轨道数据
星历时间 2025-12-21T01:54:49+0800
6小时前
查看轨道信息
2025-12-19T08:00:00+0800
2天前
查看轨道信息
半长轴 6917.881km 6917.859km
偏心率 0.0001293 0.000154
轨道倾角 53.217° 53.215°
近地点辐角 90.780° 85.545°
升交点赤经 143.498° 151.336°
平近点角 269.334° 143.268°
近地点 538.849km 538.658km
远地点 540.639km 540.79km
周期 95.438分钟 95.437分钟
每日圈数 15.088399 15.088471
详细信息
固有亮度:
5
最大亮度:
2.5
卫星平台:
Starlink v1.5
覆盖范围:
全球
运营商:
太空探索技术公司
运营商所在国:
美国
制造商(研发单位):
太空探索技术公司
制造商所在国:
美国
使用方式:
暂无
卫星简介
星链(Starlink)计划是由太空探索技术公司(SpaceX)提出的一个巨型低轨卫星互联网星座项目,计划在2019年至2024年间在太空搭建由约1.2万颗卫星组成的“星链”网络,其中1584颗将部署在地球上空550千米处的近地轨道,并从2020年开始工作。该卫星仍在工作。
2D轨道图
3D轨道图
轨道高度分析图
轨道倾角分析图
轨道综合分析图
查看轨道综合分析图